Starlink 5923

operational
NORAD ID: 56489 Int'l Des: 2023-064 Owner: SPXS Country: US Constellation: starlink
LEOCIRCULAR

About Starlink 5923

Description loading...

Live Position

Loading 3D Globe...

Upcoming Passes

Altitude History

Altitude vs Time

uPlot chart will show altitude changes over time

Two-Line Element Set

1 56489U 23064AT 26020.30034689 .00000394 00000-0 40785-4 0 9994
2 56489 69.9990 226.4838 0002575 270.2229 89.8635 14.98332963148989
Epoch: Jan 20, 2026 • Age: 20 hours

Current Status

Altitude 580.3 km
Velocity 7.57 km/s
Sub-Earth Point -25.83°S, 116.42°W
Launch Date May 10, 2023
Age 2.6 years
Type internet

Technical Details

Classification Payload
Mass 305.00 kg
Dry Mass 290.00 kg
Total Mass 305.00 kg
Length 0.20 m
Diameter 2.80 m
Span 9.00 m
Shape Box + pan
Manufacturer SPXS
Bus Type Starlink
Phase Status In Orbit
Owner/State SPXS/US

Large Constellations

Loading constellations...